date,time,SUV Intensity [MED/Hr],UV Index,Daily total [MED],Since Last [MED]
06/08/2022,00:11:18,0.000,0.0,0.0,0.0
06/08/2022,00:12:18,-0.001,0.0,0.0,0.0
06/08/2022,00:13:26,0.000,0.0,0.0,0.0
06/08/2022,00:14:18,-0.001,0.0,0.0,0.0
06/08/2022,00:15:19,0.000,0.0,0.0,0.0
06/08/2022,00:16:26,0.000,0.0,0.0,0.0
06/08/2022,00:17:16,0.001,0.0,0.0,0.0
06/08/2022,00:18:17,0.001,0.0,0.0,0.0
06/08/2022,00:19:18,-0.000,0.0,0.0,0.0
06/08/2022,00:20:18,0.000,0.0,0.0,0.0
06/08/2022,00:21:18,0.000,0.0,0.0,0.0
06/08/2022,00:22:18,0.000,0.0,0.0,0.0
06/08/2022,00:23:18,-0.001,0.0,0.0,0.0
06/08/2022,00:24:18,0.000,0.0,0.0,0.0
06/08/2022,00:25:18,0.000,0.0,0.0,0.0
06/08/2022,00:26:18,-0.000,0.0,0.0,0.0
06/08/2022,00:27:18,0.000,0.0,0.0,0.0
06/08/2022,00:28:17,0.000,0.0,0.0,0.0
06/08/2022,00:29:18,-0.001,0.0,0.0,0.0
06/08/2022,00:30:18,0.000,0.0,0.0,0.0
06/08/2022,00:31:26,0.000,0.0,0.0,0.0
06/08/2022,00:32:26,-0.000,0.0,0.0,0.0
06/08/2022,00:33:17,0.001,0.0,0.0,0.0
06/08/2022,00:34:18,0.000,0.0,0.0,0.0
06/08/2022,00:35:18,0.000,0.0,0.0,0.0
06/08/2022,00:36:18,-0.001,0.0,0.0,0.0
06/08/2022,00:37:18,0.000,0.0,0.0,0.0
06/08/2022,00:38:17,-0.000,0.0,0.0,0.0
06/08/2022,00:39:18,0.000,0.0,0.0,0.0
06/08/2022,00:40:18,0.000,0.0,0.0,0.0
06/08/2022,00:41:17,0.000,0.0,0.0,0.0
06/08/2022,00:42:18,0.000,0.0,0.0,0.0
06/08/2022,00:43:18,-0.001,0.0,0.0,0.0
06/08/2022,00:44:18,0.000,0.0,0.0,0.0
06/08/2022,00:45:17,0.000,0.0,0.0,0.0
06/08/2022,00:46:18,0.000,0.0,0.0,0.0
06/08/2022,00:47:26,0.000,0.0,0.0,0.0
06/08/2022,00:48:17,0.000,0.0,0.0,0.0
06/08/2022,00:49:18,0.000,0.0,0.0,0.0
06/08/2022,00:50:17,0.000,0.0,0.0,0.0
06/08/2022,00:51:18,-0.001,0.0,0.0,0.0
06/08/2022,00:52:17,0.000,0.0,0.0,0.0
06/08/2022,00:53:18,0.000,0.0,0.0,0.0
06/08/2022,00:54:18,0.000,0.0,0.0,0.0
06/08/2022,00:55:17,0.001,0.0,0.0,0.0
06/08/2022,00:56:18,0.000,0.0,0.0,0.0
06/08/2022,00:57:18,0.000,0.0,0.0,0.0
06/08/2022,00:58:18,0.000,0.0,0.0,0.0
06/08/2022,00:59:17,0.000,0.0,0.0,0.0
06/08/2022,01:00:17,0.001,0.0,0.0,0.0
06/08/2022,01:01:18,-0.000,0.0,0.0,0.0
06/08/2022,01:02:27,0.000,0.0,0.0,0.0
06/08/2022,01:03:17,-0.000,0.0,0.0,0.0
06/08/2022,01:04:17,-0.001,0.0,0.0,0.0
06/08/2022,01:05:27,0.000,0.0,0.0,0.0
06/08/2022,01:06:16,0.000,0.0,0.0,0.0
06/08/2022,01:07:18,0.001,0.0,0.0,0.0
06/08/2022,01:08:17,-0.000,0.0,0.0,0.0
06/08/2022,01:09:17,0.001,0.0,0.0,0.0
06/08/2022,01:10:18,0.000,0.0,0.0,0.0
06/08/2022,01:11:26,-0.000,0.0,0.0,0.0
06/08/2022,01:12:18,0.002,0.0,0.0,0.0
06/08/2022,01:13:18,0.000,0.0,0.0,0.0
06/08/2022,01:14:18,0.000,0.0,0.0,0.0
06/08/2022,01:15:26,0.000,0.0,0.0,0.0
06/08/2022,01:16:18,0.001,0.0,0.0,0.0
06/08/2022,01:17:18,0.000,0.0,0.0,0.0
06/08/2022,01:18:04,-0.000,0.0,0.0,0.0
06/08/2022,01:19:19,0.001,0.0,0.0,0.0
06/08/2022,01:20:18,0.000,0.0,0.0,0.0
06/08/2022,01:21:18,0.001,0.0,0.0,0.0
06/08/2022,01:22:18,0.000,0.0,0.0,0.0
06/08/2022,01:23:18,0.002,0.0,0.0,0.0
06/08/2022,01:24:18,-0.001,0.0,0.0,0.0
06/08/2022,01:25:17,0.000,0.0,0.0,0.0
06/08/2022,01:26:26,-0.001,0.0,0.0,0.0
06/08/2022,01:27:18,0.000,0.0,0.0,0.0
06/08/2022,01:28:18,0.000,0.0,0.0,0.0
06/08/2022,01:29:26,0.001,0.0,0.0,0.0
06/08/2022,01:30:18,0.000,0.0,0.0,0.0
06/08/2022,01:31:18,0.000,0.0,0.0,0.0
06/08/2022,01:32:17,0.000,0.0,0.0,0.0
06/08/2022,01:33:18,-0.001,0.0,0.0,0.0
06/08/2022,01:34:18,0.001,0.0,0.0,0.0
06/08/2022,01:35:18,0.001,0.0,0.0,0.0
06/08/2022,01:36:18,0.000,0.0,0.0,0.0
06/08/2022,01:37:18,0.000,0.0,0.0,0.0
06/08/2022,01:38:18,0.000,0.0,0.0,0.0
06/08/2022,01:39:18,0.001,0.0,0.0,0.0
06/08/2022,01:40:18,0.000,0.0,0.0,0.0
06/08/2022,01:41:18,0.000,0.0,0.0,0.0
06/08/2022,01:42:18,0.001,0.0,0.0,0.0
06/08/2022,01:43:18,0.000,0.0,0.0,0.0
06/08/2022,01:44:18,0.001,0.0,0.0,0.0
06/08/2022,01:45:18,0.000,0.0,0.0,0.0
06/08/2022,01:46:18,-0.000,0.0,0.0,0.0
06/08/2022,01:47:18,0.000,0.0,0.0,0.0
06/08/2022,01:48:18,0.000,0.0,0.0,0.0
06/08/2022,01:49:18,0.001,0.0,0.0,0.0
06/08/2022,01:50:18,0.000,0.0,0.0,0.0
06/08/2022,01:51:18,0.001,0.0,0.0,0.0
06/08/2022,01:52:18,0.000,0.0,0.0,0.0
06/08/2022,01:53:27,0.001,0.0,0.0,0.0
06/08/2022,01:54:25,0.001,0.0,0.0,0.0
06/08/2022,01:55:18,0.001,0.0,0.0,0.0
06/08/2022,01:56:17,0.002,0.0,0.0,0.0
06/08/2022,01:57:18,0.001,0.0,0.0,0.0
06/08/2022,01:58:18,0.000,0.0,0.0,0.0
06/08/2022,01:59:18,0.000,0.0,0.0,0.0
06/08/2022,02:00:18,0.002,0.0,0.0,0.0
06/08/2022,02:01:18,0.000,0.0,0.0,0.0
06/08/2022,02:02:18,0.001,0.0,0.0,0.0
06/08/2022,02:03:18,0.001,0.0,0.0,0.0
06/08/2022,02:04:18,0.001,0.0,0.0,0.0
06/08/2022,02:05:18,0.001,0.0,0.0,0.0
06/08/2022,02:06:26,0.001,0.0,0.0,0.0
06/08/2022,02:07:18,0.001,0.0,0.0,0.0
06/08/2022,02:08:18,0.000,0.0,0.0,0.0
06/08/2022,02:09:19,0.000,0.0,0.0,0.0
06/08/2022,02:10:18,0.002,0.0,0.0,0.0
06/08/2022,02:11:18,0.001,0.0,0.0,0.0
06/08/2022,02:12:18,0.000,0.0,0.0,0.0
06/08/2022,02:13:18,0.001,0.0,0.0,0.0
06/08/2022,02:14:17,0.000,0.0,0.0,0.0
06/08/2022,02:15:18,-0.000,0.0,0.0,0.0
06/08/2022,02:16:18,0.001,0.0,0.0,0.0
06/08/2022,02:17:18,0.001,0.0,0.0,0.0
06/08/2022,02:18:18,0.001,0.0,0.0,0.0
06/08/2022,02:19:18,0.001,0.0,0.0,0.0
06/08/2022,02:20:18,0.001,0.0,0.0,0.0
06/08/2022,02:21:17,0.000,0.0,0.0,0.0
06/08/2022,02:22:17,0.000,0.0,0.0,0.0
06/08/2022,02:23:18,0.001,0.0,0.0,0.0
06/08/2022,02:24:18,0.000,0.0,0.0,0.0
06/08/2022,02:25:17,0.001,0.0,0.0,0.0
06/08/2022,02:26:18,0.001,0.0,0.0,0.0
06/08/2022,02:27:27,0.001,0.0,0.0,0.0
06/08/2022,02:28:18,0.001,0.0,0.0,0.0
06/08/2022,02:29:18,0.000,0.0,0.0,0.0
06/08/2022,02:30:30,0.001,0.0,0.0,0.0
06/08/2022,02:32:18,0.001,0.0,0.0,0.0
06/08/2022,02:33:18,0.001,0.0,0.0,0.0
06/08/2022,02:34:18,0.000,0.0,0.0,0.0
06/08/2022,02:35:18,0.002,0.0,0.0,0.0
06/08/2022,02:36:18,0.001,0.0,0.0,0.0
06/08/2022,02:37:18,0.001,0.0,0.0,0.0
06/08/2022,02:38:17,0.001,0.0,0.0,0.0
06/08/2022,02:39:18,0.001,0.0,0.0,0.0
06/08/2022,02:40:27,0.001,0.0,0.0,0.0
06/08/2022,02:41:16,0.002,0.0,0.0,0.0
06/08/2022,02:42:18,0.001,0.0,0.0,0.0
06/08/2022,02:43:18,-0.000,0.0,0.0,0.0
06/08/2022,02:44:18,0.001,0.0,0.0,0.0
06/08/2022,02:45:18,0.001,0.0,0.0,0.0
06/08/2022,02:46:26,0.000,0.0,0.0,0.0
06/08/2022,02:47:18,0.000,0.0,0.0,0.0
06/08/2022,02:48:18,0.001,0.0,0.0,0.0
06/08/2022,02:49:18,0.001,0.0,0.0,0.0
06/08/2022,02:50:17,0.001,0.0,0.0,0.0
06/08/2022,02:51:18,0.001,0.0,0.0,0.0
06/08/2022,02:52:18,-0.000,0.0,0.0,0.0
06/08/2022,02:53:18,-0.000,0.0,0.0,0.0
06/08/2022,02:54:18,0.001,0.0,0.0,0.0
06/08/2022,02:55:18,0.001,0.0,0.0,0.0
06/08/2022,02:56:18,0.001,0.0,0.0,0.0
06/08/2022,02:57:18,0.001,0.0,0.0,0.0
06/08/2022,02:58:18,0.001,0.0,0.0,0.0
06/08/2022,02:59:18,0.001,0.0,0.0,0.0
06/08/2022,03:00:18,0.001,0.0,0.0,0.0
06/08/2022,03:01:18,0.001,0.0,0.0,0.0
06/08/2022,03:02:18,0.000,0.0,0.0,0.0
06/08/2022,03:03:18,0.001,0.0,0.0,0.0
06/08/2022,03:04:26,0.001,0.0,0.0,0.0
06/08/2022,03:05:18,0.001,0.0,0.0,0.0
06/08/2022,03:06:18,0.001,0.0,0.0,0.0
06/08/2022,03:07:18,0.001,0.0,0.0,0.0
06/08/2022,03:08:18,0.001,0.0,0.0,0.0
06/08/2022,03:09:18,0.001,0.0,0.0,0.0
06/08/2022,03:10:18,0.001,0.0,0.0,0.0
06/08/2022,03:11:18,0.001,0.0,0.0,0.0
06/08/2022,03:12:18,0.002,0.0,0.0,0.0
06/08/2022,03:13:18,0.000,0.0,0.0,0.0
06/08/2022,03:14:18,0.001,0.0,0.0,0.0
06/08/2022,03:15:27,0.001,0.0,0.0,0.0
06/08/2022,03:16:18,0.001,0.0,0.0,0.0
06/08/2022,03:17:18,0.000,0.0,0.0,0.0
06/08/2022,03:18:18,0.001,0.0,0.0,0.0
06/08/2022,03:19:18,0.001,0.0,0.0,0.0
06/08/2022,03:20:18,0.001,0.0,0.0,0.0
06/08/2022,03:21:18,0.001,0.0,0.0,0.0
06/08/2022,03:22:18,0.001,0.0,0.0,0.0
06/08/2022,03:23:26,0.001,0.0,0.0,0.0
06/08/2022,03:24:18,0.001,0.0,0.0,0.0
06/08/2022,03:25:18,0.000,0.0,0.0,0.0
06/08/2022,03:26:27,0.001,0.0,0.0,0.0
06/08/2022,03:27:18,0.001,0.0,0.0,0.0
06/08/2022,03:28:18,0.001,0.0,0.0,0.0
06/08/2022,03:29:26,0.001,0.0,0.0,0.0
06/08/2022,03:30:17,0.002,0.0,0.0,0.0
06/08/2022,03:31:21,0.001,0.0,0.0,0.0
06/08/2022,03:32:26,0.000,0.0,0.0,0.0
06/08/2022,03:33:20,0.001,0.0,0.0,0.0
06/08/2022,03:34:18,0.001,0.0,0.0,0.0
06/08/2022,03:35:18,0.000,0.0,0.0,0.0
06/08/2022,03:36:18,0.001,0.0,0.0,0.0
06/08/2022,03:37:18,0.001,0.0,0.0,0.0
06/08/2022,03:38:18,0.001,0.0,0.0,0.0
06/08/2022,03:39:18,0.001,0.0,0.0,0.0
06/08/2022,03:40:18,0.000,0.0,0.0,0.0
06/08/2022,03:41:18,0.001,0.0,0.0,0.0
06/08/2022,03:42:18,0.001,0.0,0.0,0.0
06/08/2022,03:43:18,0.001,0.0,0.0,0.0
06/08/2022,03:44:18,0.001,0.0,0.0,0.0
06/08/2022,03:45:18,0.001,0.0,0.0,0.0
06/08/2022,03:46:18,0.001,0.0,0.0,0.0
06/08/2022,03:47:18,0.001,0.0,0.0,0.0
06/08/2022,03:48:26,0.002,0.0,0.0,0.0
06/08/2022,03:49:19,0.001,0.0,0.0,0.0
06/08/2022,03:50:19,0.001,0.0,0.0,0.0
06/08/2022,03:51:18,0.001,0.0,0.0,0.0
06/08/2022,03:52:18,0.000,0.0,0.0,0.0
06/08/2022,03:53:18,0.001,0.0,0.0,0.0
06/08/2022,03:54:18,0.001,0.0,0.0,0.0
06/08/2022,03:55:18,0.001,0.0,0.0,0.0
06/08/2022,03:56:18,0.002,0.0,0.0,0.0
06/08/2022,03:57:26,0.002,0.0,0.0,0.0
06/08/2022,03:58:18,0.002,0.0,0.0,0.0
06/08/2022,03:59:18,0.001,0.0,0.0,0.0
06/08/2022,04:00:27,0.000,0.0,0.0,0.0
06/08/2022,04:01:18,0.001,0.0,0.0,0.0
06/08/2022,04:02:18,0.001,0.0,0.0,0.0
06/08/2022,04:03:18,0.002,0.0,0.0,0.0
06/08/2022,04:04:18,0.001,0.0,0.0,0.0
06/08/2022,04:05:18,0.001,0.0,0.0,0.0
06/08/2022,04:06:18,0.002,0.0,0.0,0.0
06/08/2022,04:07:18,0.001,0.0,0.0,0.0
06/08/2022,04:08:18,0.001,0.0,0.0,0.0
06/08/2022,04:09:18,0.001,0.0,0.0,0.0
06/08/2022,04:10:18,0.001,0.0,0.0,0.0
06/08/2022,04:11:18,0.001,0.0,0.0,0.0
06/08/2022,04:12:18,0.001,0.0,0.0,0.0
06/08/2022,04:13:27,0.001,0.0,0.0,0.0
06/08/2022,04:14:18,0.001,0.0,0.0,0.0
06/08/2022,04:15:26,0.001,0.0,0.0,0.0
06/08/2022,04:16:18,0.001,0.0,0.0,0.0
06/08/2022,04:17:18,0.001,0.0,0.0,0.0
06/08/2022,04:18:18,0.001,0.0,0.0,0.0
06/08/2022,04:19:18,0.002,0.0,0.0,0.0
06/08/2022,04:20:18,0.001,0.0,0.0,0.0
06/08/2022,04:21:26,0.001,0.0,0.0,0.0
06/08/2022,04:22:26,0.001,0.0,0.0,0.0
06/08/2022,04:23:18,0.001,0.0,0.0,0.0
06/08/2022,04:24:18,0.002,0.0,0.0,0.0
06/08/2022,04:25:18,0.001,0.0,0.0,0.0
06/08/2022,04:26:18,0.002,0.0,0.0,0.0
06/08/2022,04:27:18,0.001,0.0,0.0,0.0
06/08/2022,04:28:18,0.002,0.0,0.0,0.0
06/08/2022,04:29:18,0.002,0.0,0.0,0.0
06/08/2022,04:30:18,0.002,0.0,0.0,0.0
06/08/2022,04:31:18,0.002,0.0,0.0,0.0
06/08/2022,04:32:18,0.003,0.0,0.0,0.0
06/08/2022,04:33:18,0.002,0.0,0.0,0.0
06/08/2022,04:34:26,0.001,0.0,0.0,0.0
06/08/2022,04:35:18,0.002,0.0,0.0,0.0
06/08/2022,04:36:18,0.002,0.0,0.0,0.0
06/08/2022,04:37:26,0.002,0.0,0.0,0.0
06/08/2022,04:38:18,0.003,0.0,0.0,0.0
06/08/2022,04:39:35,0.003,0.0,0.0,0.0
06/08/2022,04:41:18,0.004,0.0,0.0,0.0
06/08/2022,04:42:18,0.003,0.0,0.0,0.0
06/08/2022,04:43:18,0.003,0.0,0.0,0.0
06/08/2022,04:44:18,0.003,0.0,0.0,0.0
06/08/2022,04:45:18,0.004,0.0,0.0,0.0
06/08/2022,04:46:18,0.004,0.0,0.0,0.0
06/08/2022,04:47:19,0.004,0.0,0.0,0.0
06/08/2022,04:48:18,0.004,0.0,0.0,0.0
06/08/2022,04:49:18,0.005,0.0,0.0,0.0
06/08/2022,04:50:18,0.005,0.0,0.0,0.0
06/08/2022,04:51:18,0.005,0.0,0.0,0.0
06/08/2022,04:52:19,0.004,0.0,0.0,0.0
06/08/2022,04:53:26,0.005,0.0,0.0,0.0
06/08/2022,04:54:18,0.005,0.0,0.0,0.0
06/08/2022,04:55:18,0.006,0.0,0.0,0.0
06/08/2022,04:56:26,0.007,0.0,0.0,0.0
06/08/2022,04:57:18,0.006,0.0,0.0,0.0
06/08/2022,04:58:19,0.006,0.0,0.0,0.0
06/08/2022,04:59:18,0.007,0.0,0.0,0.0
06/08/2022,05:00:18,0.007,0.0,0.0,0.0
06/08/2022,05:01:18,0.007,0.0,0.001,0.001
06/08/2022,05:02:18,0.007,0.0,0.001,0.0
06/08/2022,05:03:19,0.007,0.0,0.001,0.0
06/08/2022,05:04:18,0.008,0.0,0.001,0.0
06/08/2022,05:05:18,0.010,0.0,0.001,0.0
06/08/2022,05:06:18,0.009,0.0,0.001,0.0
06/08/2022,05:07:19,0.009,0.0,0.001,0.0
06/08/2022,05:08:27,0.010,0.0,0.001,0.0
06/08/2022,05:09:18,0.010,0.0,0.002,0.001
06/08/2022,05:10:18,0.012,0.0,0.002,0.0
06/08/2022,05:11:29,0.011,0.0,0.002,0.0
06/08/2022,05:13:19,0.011,0.0,0.002,0.0
06/08/2022,05:14:19,0.013,0.0,0.003,0.001
06/08/2022,05:15:19,0.012,0.0,0.003,0.0
06/08/2022,05:16:19,0.013,0.0,0.003,0.0
06/08/2022,05:17:18,0.014,0.0,0.003,0.0
06/08/2022,05:18:18,0.014,0.0,0.003,0.0
06/08/2022,05:19:18,0.015,0.0,0.004,0.001
06/08/2022,05:20:18,0.015,0.0,0.004,0.0
06/08/2022,05:21:18,0.016,0.0,0.004,0.0
06/08/2022,05:22:18,0.016,0.0,0.004,0.0
06/08/2022,05:23:18,0.017,0.0,0.005,0.001
06/08/2022,05:24:27,0.018,0.0,0.005,0.0
06/08/2022,05:25:18,0.020,0.0,0.005,0.0
06/08/2022,05:26:18,0.019,0.0,0.006,0.001
06/08/2022,05:27:27,0.019,0.0,0.006,0.0
06/08/2022,05:28:18,0.020,0.0,0.006,0.0
06/08/2022,05:29:19,0.021,0.0,0.007,0.001
06/08/2022,05:30:18,0.022,0.0,0.007,0.0
06/08/2022,05:31:18,0.022,0.0,0.007,0.0
06/08/2022,05:32:18,0.023,0.0,0.008,0.001
06/08/2022,05:33:18,0.024,0.0,0.008,0.0
06/08/2022,05:34:18,0.024,0.0,0.008,0.0
06/08/2022,05:35:18,0.025,0.0,0.009,0.001
06/08/2022,05:36:18,0.026,0.0,0.009,0.0
06/08/2022,05:37:18,0.026,0.0,0.01,0.001
06/08/2022,05:38:18,0.028,0.0,0.01,0.0
06/08/2022,05:39:20,0.028,0.0,0.011,0.001
06/08/2022,05:40:18,0.029,0.0,0.011,0.0
06/08/2022,05:41:19,0.030,0.0,0.012,0.001
06/08/2022,05:42:18,0.030,0.0,0.012,0.0
06/08/2022,05:43:18,0.032,0.0,0.013,0.001
06/08/2022,05:44:25,0.033,0.0,0.013,0.0
06/08/2022,05:45:18,0.035,0.0,0.014,0.001
06/08/2022,05:46:19,0.035,0.0,0.014,0.0
06/08/2022,05:47:19,0.036,0.0,0.015,0.001
06/08/2022,05:48:18,0.037,0.0,0.015,0.0
06/08/2022,05:49:26,0.038,0.0,0.016,0.001
06/08/2022,05:50:19,0.038,0.0,0.017,0.001
06/08/2022,05:51:18,0.040,0.0,0.017,0.0
06/08/2022,05:52:19,0.041,0.0,0.018,0.001
06/08/2022,05:53:18,0.041,0.0,0.019,0.001
06/08/2022,05:54:18,0.044,0.0,0.019,0.0
06/08/2022,05:55:18,0.045,0.0,0.02,0.001
06/08/2022,05:56:18,0.045,0.0,0.021,0.001
06/08/2022,05:57:19,0.047,0.0,0.022,0.001
06/08/2022,05:58:27,0.048,0.0,0.023,0.001
06/08/2022,05:59:19,0.050,0.0,0.023,0.0
06/08/2022,06:00:19,0.051,0.0,0.024,0.001
06/08/2022,06:01:18,0.051,0.0,0.025,0.001
06/08/2022,06:02:18,0.053,0.0,0.026,0.001
06/08/2022,06:03:18,0.055,0.0,0.027,0.001
06/08/2022,06:04:18,0.057,0.0,0.028,0.001
06/08/2022,06:05:18,0.057,0.0,0.029,0.001
06/08/2022,06:06:18,0.059,0.0,0.03,0.001
06/08/2022,06:07:19,0.061,0.0,0.031,0.001
06/08/2022,06:08:27,0.061,0.0,0.032,0.001
06/08/2022,06:09:18,0.064,0.0,0.033,0.001
06/08/2022,06:10:20,0.065,0.0,0.034,0.001
06/08/2022,06:11:27,0.067,0.0,0.035,0.001
06/08/2022,06:12:19,0.068,0.0,0.036,0.001
06/08/2022,06:13:21,0.070,0.0,0.037,0.001
06/08/2022,06:14:27,0.071,0.0,0.038,0.001
06/08/2022,06:15:18,0.073,0.0,0.039,0.001
06/08/2022,06:16:18,0.076,0.0,0.041,0.002
06/08/2022,06:17:19,0.076,0.0,0.042,0.001
06/08/2022,06:18:18,0.078,0.0,0.043,0.001
06/08/2022,06:19:19,0.080,0.0,0.045,0.002
06/08/2022,06:20:27,0.081,0.0,0.046,0.001
06/08/2022,06:21:18,0.083,0.0,0.047,0.001
06/08/2022,06:22:18,0.085,0.0,0.049,0.002
06/08/2022,06:23:19,0.087,0.0,0.05,0.001
06/08/2022,06:24:18,0.089,0.0,0.052,0.002
06/08/2022,06:25:19,0.091,0.0,0.053,0.001
06/08/2022,06:26:18,0.093,0.0,0.055,0.002
06/08/2022,06:27:18,0.095,0.0,0.056,0.001
06/08/2022,06:28:18,0.098,0.0,0.058,0.002
06/08/2022,06:29:18,0.101,0.0,0.059,0.001
06/08/2022,06:30:26,0.104,0.0,0.061,0.002
06/08/2022,06:31:18,0.105,0.0,0.063,0.002
06/08/2022,06:32:18,0.107,0.0,0.065,0.002
06/08/2022,06:33:18,0.110,0.0,0.066,0.001
06/08/2022,06:34:27,0.111,0.0,0.069,0.003
06/08/2022,06:35:18,0.113,0.0,0.07,0.001
06/08/2022,06:36:18,0.115,0.0,0.072,0.002
06/08/2022,06:37:19,0.117,0.0,0.074,0.002
06/08/2022,06:38:18,0.120,0.0,0.076,0.002
06/08/2022,06:39:18,0.123,0.0,0.078,0.002
06/08/2022,06:40:19,0.125,0.0,0.08,0.002
06/08/2022,06:41:18,0.129,0.0,0.082,0.002
06/08/2022,06:42:18,0.132,0.0,0.084,0.002
06/08/2022,06:43:18,0.135,0.0,0.087,0.003
06/08/2022,06:44:19,0.138,0.0,0.089,0.002
06/08/2022,06:45:19,0.142,0.0,0.091,0.002
06/08/2022,06:46:19,0.145,0.0,0.094,0.003
06/08/2022,06:47:19,0.147,0.0,0.096,0.002
06/08/2022,06:48:20,0.150,0.0,0.099,0.003
06/08/2022,06:49:18,0.153,0.0,0.101,0.002
06/08/2022,06:50:19,0.156,0.0,0.104,0.003
06/08/2022,06:51:26,0.159,0.0,0.107,0.003
06/08/2022,06:52:19,0.162,0.0,0.109,0.002
06/08/2022,06:53:20,0.165,0.0,0.112,0.003
06/08/2022,06:54:18,0.168,0.0,0.114,0.002
06/08/2022,06:55:20,0.172,0.0,0.117,0.003
06/08/2022,06:56:18,0.176,0.0,0.12,0.003
06/08/2022,06:57:16,0.178,0.0,0.123,0.003
06/08/2022,06:58:19,0.182,0.0,0.126,0.003
06/08/2022,06:59:18,0.186,0.0,0.129,0.003
06/08/2022,07:00:19,0.189,0.0,0.132,0.003
06/08/2022,07:01:26,0.194,0.0,0.136,0.004
06/08/2022,07:02:19,0.197,0.0,0.139,0.003
06/08/2022,07:03:18,0.200,0.0,0.142,0.003
06/08/2022,07:04:18,0.204,0.0,0.145,0.003
06/08/2022,07:05:18,0.207,0.0,0.149,0.004
06/08/2022,07:06:19,0.211,0.0,0.152,0.003
06/08/2022,07:07:18,0.216,0.0,0.156,0.004
06/08/2022,07:08:19,0.220,1.0,0.16,0.004
06/08/2022,07:09:18,0.224,1.0,0.163,0.003
06/08/2022,07:10:18,0.228,1.0,0.167,0.004
06/08/2022,07:11:18,0.231,1.0,0.171,0.004
06/08/2022,07:12:18,0.236,1.0,0.175,0.004
06/08/2022,07:13:20,0.239,1.0,0.179,0.004
06/08/2022,07:14:27,0.244,1.0,0.183,0.004
06/08/2022,07:15:18,0.247,1.0,0.187,0.004
06/08/2022,07:16:27,0.252,1.0,0.191,0.004
06/08/2022,07:17:19,0.254,1.0,0.195,0.004
06/08/2022,07:18:18,0.258,1.0,0.199,0.004
06/08/2022,07:19:18,0.262,1.0,0.204,0.005
06/08/2022,07:20:18,0.268,1.0,0.208,0.004
06/08/2022,07:21:19,0.271,1.0,0.213,0.005
06/08/2022,07:22:19,0.275,1.0,0.217,0.004
06/08/2022,07:23:19,0.280,1.0,0.222,0.005
06/08/2022,07:24:19,0.285,1.0,0.226,0.004
06/08/2022,07:25:18,0.289,1.0,0.231,0.005
06/08/2022,07:26:19,0.294,1.0,0.236,0.005
06/08/2022,07:27:18,0.297,1.0,0.241,0.005
06/08/2022,07:28:18,0.303,1.0,0.246,0.005
06/08/2022,07:29:18,0.308,1.0,0.251,0.005
06/08/2022,07:30:18,0.312,1.0,0.256,0.005
06/08/2022,07:31:19,0.317,1.0,0.262,0.006
06/08/2022,07:32:27,0.323,1.0,0.268,0.006
06/08/2022,07:33:19,0.326,1.0,0.272,0.004
06/08/2022,07:34:18,0.331,1.0,0.278,0.006
06/08/2022,07:35:35,0.335,1.0,0.285,0.007
06/08/2022,07:37:19,0.346,1.0,0.295,0.01
06/08/2022,07:38:37,0.355,1.0,0.302,0.007
06/08/2022,07:40:19,0.361,1.0,0.312,0.01
06/08/2022,07:41:19,0.368,1.0,0.318,0.006
06/08/2022,07:42:19,0.373,1.0,0.325,0.007
06/08/2022,07:43:18,0.377,1.0,0.331,0.006
06/08/2022,07:44:19,0.384,1.0,0.337,0.006
06/08/2022,07:45:18,0.390,1.0,0.344,0.007
06/08/2022,07:46:19,0.396,1.0,0.35,0.006
06/08/2022,07:47:18,0.400,1.0,0.357,0.007
06/08/2022,07:48:27,0.408,1.0,0.364,0.007
06/08/2022,07:49:20,0.412,1.0,0.371,0.007
06/08/2022,07:50:19,0.418,1.0,0.377,0.006
06/08/2022,07:51:18,0.425,1.0,0.384,0.007
06/08/2022,07:52:19,0.430,1.0,0.391,0.007
06/08/2022,07:53:19,0.437,1.0,0.399,0.008
06/08/2022,07:54:19,0.442,1.0,0.406,0.007
06/08/2022,07:55:19,0.448,1.0,0.413,0.007
06/08/2022,07:56:18,0.452,1.0,0.421,0.008
06/08/2022,07:57:19,0.461,1.0,0.429,0.008
06/08/2022,07:58:19,0.465,1.0,0.436,0.007
06/08/2022,07:59:19,0.473,1.0,0.444,0.008
06/08/2022,08:00:19,0.479,1.0,0.452,0.008
06/08/2022,08:01:18,0.486,1.0,0.46,0.008
06/08/2022,08:02:18,0.490,1.0,0.468,0.008
06/08/2022,08:03:19,0.496,1.0,0.476,0.008
06/08/2022,08:04:18,0.502,1.0,0.485,0.009
06/08/2022,08:05:19,0.510,1.0,0.493,0.008
06/08/2022,08:06:18,0.517,1.0,0.502,0.009
06/08/2022,08:07:19,0.522,1.0,0.51,0.008
06/08/2022,08:08:18,0.531,1.0,0.519,0.009
06/08/2022,08:09:27,0.538,1.0,0.529,0.01
06/08/2022,08:10:18,0.541,1.0,0.537,0.008
06/08/2022,08:11:19,0.549,1.0,0.546,0.009
06/08/2022,08:12:18,0.556,1.0,0.555,0.009
06/08/2022,08:13:18,0.562,1.0,0.565,0.01
06/08/2022,08:14:19,0.569,1.0,0.574,0.009
06/08/2022,08:15:19,0.576,1.0,0.584,0.01
06/08/2022,08:16:18,0.586,1.0,0.593,0.009
06/08/2022,08:17:19,0.589,1.0,0.603,0.01
06/08/2022,08:18:19,0.596,1.0,0.613,0.01
06/08/2022,08:19:18,0.604,1.0,0.623,0.01
06/08/2022,08:20:19,0.611,1.0,0.633,0.01
06/08/2022,08:21:19,0.617,1.0,0.643,0.01
06/08/2022,08:22:26,0.625,1.0,0.655,0.012
06/08/2022,08:23:19,0.632,1.0,0.664,0.009
06/08/2022,08:24:18,0.640,1.0,0.675,0.011
06/08/2022,08:25:19,0.649,1.0,0.686,0.011
06/08/2022,08:26:18,0.656,2.0,0.696,0.01
06/08/2022,08:27:18,0.661,2.0,0.707,0.011
06/08/2022,08:28:26,0.671,2.0,0.72,0.013
06/08/2022,08:29:18,0.676,2.0,0.73,0.01
06/08/2022,08:30:19,0.682,2.0,0.741,0.011
06/08/2022,08:31:18,0.689,2.0,0.752,0.011
06/08/2022,08:32:19,0.699,2.0,0.764,0.012
06/08/2022,08:33:18,0.707,2.0,0.776,0.012
06/08/2022,08:34:18,0.713,2.0,0.788,0.012
06/08/2022,08:35:19,0.722,2.0,0.799,0.011
06/08/2022,08:36:18,0.730,2.0,0.812,0.013
06/08/2022,08:37:19,0.736,2.0,0.824,0.012
06/08/2022,08:38:18,0.744,2.0,0.836,0.012
06/08/2022,08:39:19,0.753,2.0,0.849,0.013
06/08/2022,08:40:18,0.761,2.0,0.861,0.012
06/08/2022,08:41:19,0.768,2.0,0.874,0.013
06/08/2022,08:42:19,0.777,2.0,0.887,0.013
06/08/2022,08:43:19,0.785,2.0,0.9,0.013
06/08/2022,08:44:18,0.792,2.0,0.913,0.013
06/08/2022,08:45:18,0.798,2.0,0.926,0.013
06/08/2022,08:46:19,0.806,2.0,0.94,0.014
06/08/2022,08:47:18,0.816,2.0,0.953,0.013
06/08/2022,08:48:18,0.824,2.0,0.967,0.014
06/08/2022,08:49:19,0.834,2.0,0.981,0.014
06/08/2022,08:50:27,0.841,2.0,0.997,0.016
06/08/2022,08:51:18,0.853,2.0,1.009,0.012
06/08/2022,08:52:18,0.859,2.0,1.023,0.014
06/08/2022,08:53:18,0.860,2.0,1.037,0.014
06/08/2022,08:54:19,0.866,2.0,1.052,0.015
06/08/2022,08:55:19,0.876,2.0,1.066,0.014
06/08/2022,08:56:19,0.887,2.0,1.081,0.015
06/08/2022,08:57:18,0.890,2.0,1.096,0.015
06/08/2022,08:58:18,0.885,2.0,1.111,0.015
06/08/2022,08:59:18,0.888,2.0,1.125,0.014
06/08/2022,09:00:19,0.906,2.0,1.14,0.015
06/08/2022,09:01:18,0.921,2.0,1.156,0.016
06/08/2022,09:02:18,0.928,2.0,1.171,0.015
06/08/2022,09:03:19,0.943,2.0,1.187,0.016
06/08/2022,09:04:19,0.961,2.0,1.203,0.016
06/08/2022,09:05:19,0.971,2.0,1.219,0.016
06/08/2022,09:06:18,0.979,2.0,1.235,0.016
06/08/2022,09:07:19,0.982,2.0,1.251,0.016
06/08/2022,09:08:18,0.995,2.0,1.268,0.017
06/08/2022,09:09:18,1.006,2.0,1.284,0.016
06/08/2022,09:10:18,1.016,2.0,1.301,0.017
06/08/2022,09:11:27,1.016,2.0,1.32,0.019
06/08/2022,09:12:18,1.025,2.0,1.335,0.015
06/08/2022,09:13:19,1.025,2.0,1.352,0.017
06/08/2022,09:14:19,1.031,2.0,1.369,0.017
06/08/2022,09:15:19,1.040,2.0,1.387,0.018
06/08/2022,09:16:18,1.046,2.0,1.404,0.017
06/08/2022,09:17:18,1.029,2.0,1.421,0.017
06/08/2022,09:18:19,1.044,2.0,1.439,0.018
06/08/2022,09:19:18,1.050,2.0,1.456,0.017
06/08/2022,09:20:19,1.063,2.0,1.474,0.018
06/08/2022,09:21:18,1.070,2.0,1.492,0.018
06/08/2022,09:22:19,1.085,2.0,1.509,0.017
06/08/2022,09:23:19,1.098,3.0,1.528,0.019
06/08/2022,09:24:27,1.111,3.0,1.549,0.021
06/08/2022,09:25:18,1.120,3.0,1.565,0.016
06/08/2022,09:26:27,1.143,3.0,1.586,0.021
06/08/2022,09:27:18,1.150,3.0,1.603,0.017
06/08/2022,09:28:18,1.158,3.0,1.622,0.019
06/08/2022,09:29:19,1.151,3.0,1.641,0.019
06/08/2022,09:30:19,1.150,3.0,1.66,0.019
06/08/2022,09:31:19,1.141,3.0,1.679,0.019
06/08/2022,09:32:19,1.145,3.0,1.698,0.019
06/08/2022,09:33:18,1.147,3.0,1.717,0.019
06/08/2022,09:34:20,1.163,3.0,1.737,0.02
06/08/2022,09:35:19,1.177,3.0,1.756,0.019
06/08/2022,09:36:18,1.189,3.0,1.776,0.02
06/08/2022,09:37:19,1.221,3.0,1.796,0.02
06/08/2022,09:38:18,1.225,3.0,1.816,0.02
06/08/2022,09:39:18,1.234,3.0,1.837,0.021
06/08/2022,09:40:19,1.254,3.0,1.858,0.021
06/08/2022,09:41:19,1.276,3.0,1.879,0.021
06/08/2022,09:42:19,1.248,3.0,1.9,0.021
06/08/2022,09:43:18,1.279,3.0,1.921,0.021
06/08/2022,09:44:18,1.281,3.0,1.942,0.021
06/08/2022,09:45:27,1.269,3.0,1.966,0.024
06/08/2022,09:46:18,1.278,3.0,1.985,0.019
06/08/2022,09:47:19,1.260,3.0,2.006,0.021
06/08/2022,09:48:18,1.256,3.0,2.027,0.021
06/08/2022,09:49:19,1.246,3.0,2.048,0.021
06/08/2022,09:50:19,1.236,3.0,2.069,0.021
06/08/2022,09:51:19,1.226,3.0,2.089,0.02
06/08/2022,09:52:19,1.261,3.0,2.11,0.021
06/08/2022,09:53:18,1.299,3.0,2.131,0.021
06/08/2022,09:54:19,1.333,3.0,2.153,0.022
06/08/2022,09:55:18,1.341,3.0,2.175,0.022
06/08/2022,09:56:19,1.300,3.0,2.197,0.022
06/08/2022,09:57:19,1.312,3.0,2.219,0.022
06/08/2022,09:58:20,1.354,3.0,2.242,0.023
06/08/2022,09:59:19,1.352,3.0,2.263,0.021
06/08/2022,10:00:19,1.372,3.0,2.286,0.023
06/08/2022,10:01:19,1.396,3.0,2.309,0.023
06/08/2022,10:02:19,1.312,3.0,2.333,0.024
06/08/2022,10:03:27,1.291,3.0,2.357,0.024
06/08/2022,10:04:18,1.276,3.0,2.375,0.018
06/08/2022,10:05:19,1.336,3.0,2.397,0.022
06/08/2022,10:06:27,1.375,3.0,2.423,0.026
06/08/2022,10:07:18,1.384,3.0,2.443,0.02
06/08/2022,10:08:19,1.394,3.0,2.466,0.023
06/08/2022,10:09:19,1.412,3.0,2.49,0.024
06/08/2022,10:10:18,1.408,3.0,2.513,0.023
06/08/2022,10:11:18,1.424,3.0,2.536,0.023
06/08/2022,10:12:19,1.424,3.0,2.56,0.024
06/08/2022,10:13:19,1.421,3.0,2.584,0.024
06/08/2022,10:14:19,1.450,3.0,2.608,0.024